Waarnemingen

Advertentie
Mijn weer
Pembrey Sands, Groot Brittannië (3605): temperatuur & dauwpunt: 19.09.2018 10:00:00 - 25.09.2018 10:00:00 (BST)Pembrey Sands, Groot Brittannië (3605): windsnelheid & windstoten: 19.09.2018 10:00:00 - 25.09.2018 10:00:00 (BST)Pembrey Sands, Groot Brittannië (3605): windrichting: 19.09.2018 10:00:00 - 25.09.2018 10:00:00 (BST)Pembrey Sands, Groot Brittannië (3605): luchtdruk: 19.09.2018 10:00:00 - 25.09.2018 10:00:00 (BST)Pembrey Sands, Groot Brittannië (3605): zicht: 19.09.2018 10:00:00 - 25.09.2018 10:00:00 (BST)Pembrey Sands, Groot Brittannië (3605): neerslag: 19.09.2018 10:00:00 - 25.09.2018 10:00:00 (BST)
Datum & Tijd tt [°C] td [°C] ff [km/u] ff [kn] fx [km/u] fx [kn] dd ppp [hPa] vv [km] rr [mm]
25.09.2018 10:00:00 13,8 7,1 24 13 - - Z 1037,6 30 0,0
25.09.2018 09:00:00 10,8 7,4 9 5 - - OZO 1037,4 30 0,0
25.09.2018 08:00:00 7,8 6,2 15 8 - - OZO 1037,5 25 0,0
25.09.2018 07:00:00 6,1 4,8 16 9 - - O 1037,4 24 0,0
25.09.2018 06:00:00 3,1 2,6 9 5 - - O 1037,7 28 0,0
25.09.2018 05:00:00 0,8 -0,1 8 4 - - NO 1037,7 22 0,0
25.09.2018 04:00:00 4,4 3,7 9 5 - - ONO 1037,8 30 0,0
25.09.2018 03:00:00 2,0 1,2 4 2 - - O 1038,7 21 0,0
25.09.2018 02:00:00 3,1 2,1 4 2 - - OZO 1038,8 28 0,0
25.09.2018 01:00:00 4,9 3,5 11 6 - - O 1039,0 29 0,0
25.09.2018 00:00:00 4,4 2,9 11 6 - - ONO 1039,3 30 0,0
24.09.2018 23:00:00 8,4 5,4 13 7 - - ONO 1039,3 45 0,0
24.09.2018 22:00:00 7,5 5,2 9 5 - - O 1039,4 35 0,0
24.09.2018 21:00:00 8,4 5,4 8 4 - - ONO 1039,0 40 0,0
24.09.2018 20:00:00 7,9 4,8 5 3 - - NNO 1038,8 40 0,0
24.09.2018 19:00:00 11,4 6,1 13 7 - - N 1039,0 35 0,0
24.09.2018 18:00:00 13,8 5,8 8 4 - - N 1038,6 30 0,0
24.09.2018 17:00:00 13,1 7,1 8 4 - - NNO 1038,8 30 0,0
24.09.2018 16:00:00 13,9 6,4 11 6 - - W 1039,3 30 0,0
24.09.2018 15:00:00 13,7 6,8 16 9 - - W 1039,7 29 0,0
24.09.2018 14:00:00 14,1 6,2 9 5 - - NW 1039,6 30 0,0
24.09.2018 13:00:00 13,8 5,6 5 3 - - N 1039,9 30 0,0
24.09.2018 12:00:00 13,2 6,1 5 3 - - N 1040,5 28 0,0
24.09.2018 11:00:00 12,7 6,7 8 4 - - ZZW 1039,9 27 0,0
24.09.2018 10:00:00 11,1 6,8 5 3 - - O 1039,5 30 0,0
24.09.2018 09:00:00 7,9 7,1 8 4 - - O 1039,1 30 0,0
24.09.2018 08:00:00 2,4 1,9 8 4 - - NO 1038,5 22 0,0
24.09.2018 07:00:00 1,8 1,2 5 3 - - ONO 1037,8 25 0,0
24.09.2018 06:00:00 2,2 1,5 5 3 - - O 1037,4 24 0,0
24.09.2018 05:00:00 3,3 2,5 9 5 - - N 1036,9 23 0,0
24.09.2018 04:00:00 4,1 3,0 8 4 - - NNO 1036,8 23 0,0
24.09.2018 03:00:00 7,0 6,1 8 4 - - NO 1036,7 30 0,0
24.09.2018 02:00:00 7,3 6,3 8 4 - - O 1036,2 30 0,0
24.09.2018 01:00:00 5,6 3,8 9 5 - - NNW 1035,3 30 0,0
24.09.2018 00:00:00 7,8 5,5 8 4 - - N 1034,4 35 0,0
23.09.2018 23:00:00 7,3 5,8 13 7 - - NNW 1033,4 35 0,0
23.09.2018 22:00:00 9,7 6,5 9 5 - - NW 1033,0 40 0,0
23.09.2018 21:00:00 9,7 5,9 13 7 - - NNW 1031,7 40 0,0
23.09.2018 20:00:00 10,3 5,5 16 9 - - N 1030,4 40 0,0
23.09.2018 19:00:00 11,2 5,3 22 12 48 26 NNW 1029,1 35 0,0
23.09.2018 18:00:00 12,3 4,8 37 20 54 29 NNW 1028,3 35 0,0
23.09.2018 17:00:00 12,9 4,5 31 17 52 28 N 1027,2 35 0,0
23.09.2018 16:00:00 13,2 5,7 29 16 54 29 NNW 1026,4 30 0,0
23.09.2018 15:00:00 12,5 5,4 31 17 52 28 NNW 1025,4 35 0,0
23.09.2018 14:00:00 13,6 6,2 31 17 54 29 NNW 1024,2 30 0,0
23.09.2018 13:00:00 13,5 5,8 31 17 55 30 N 1022,7 30 0,0
23.09.2018 12:00:00 13,2 7,7 24 13 - - N 1021,9 30 0,0
23.09.2018 11:00:00 11,2 8,3 21 11 - - NNW 1021,1 26 0,0
23.09.2018 10:00:00 10,3 7,9 21 11 - - N 1019,8 45 0,0
23.09.2018 09:00:00 9,7 8,2 16 9 - - N 1018,4 23 0,4
23.09.2018 08:00:00 9,4 8,1 24 13 - - N 1017,7 7 1,0
23.09.2018 07:00:00 9,6 8,2 16 9 - - NNO 1016,3 9 0,8
23.09.2018 06:00:00 10,0 8,3 13 7 - - N 1015,2 35 0,0
23.09.2018 05:00:00 10,3 8,4 15 8 - - NNO 1015,3 35 0,0
23.09.2018 04:00:00 10,3 8,5 9 5 - - NNO 1015,3 45 0,0
23.09.2018 03:00:00 10,4 8,5 15 8 - - NO 1014,9 40 0,0
23.09.2018 02:00:00 10,5 8,6 13 7 - - NO 1015,2 45 0,0
23.09.2018 01:00:00 10,5 8,7 16 9 - - NO 1015,0 45 0,0
23.09.2018 00:00:00 10,4 8,7 21 11 - - NO 1014,5 45 0,0
22.09.2018 23:00:00 10,5 8,8 21 11 - - NO 1014,6 50 0,0
22.09.2018 22:00:00 10,3 8,8 21 11 - - NO 1014,1 50 0,0
22.09.2018 21:00:00 10,4 9,0 18 10 - - NO 1013,6 50 0,0
22.09.2018 20:00:00 10,6 9,2 21 11 - - NO 1012,8 50 0,0
22.09.2018 19:00:00 11,1 9,6 16 9 - - NO 1012,9 35 0,0
22.09.2018 18:00:00 11,0 9,8 21 11 - - ONO 1012,5 45 0,0
22.09.2018 17:00:00 11,1 10,2 15 8 - - ONO 1013,0 13 0,6
22.09.2018 16:00:00 11,0 10,1 15 8 - - O 1013,7 18 0,6
22.09.2018 15:00:00 10,8 9,8 16 9 - - O 1014,5 15 0,4
22.09.2018 14:00:00 10,7 9,8 15 8 - - O 1015,4 10 1,4
22.09.2018 13:00:00 10,3 9,3 13 7 - - O 1016,4 6 1,0
22.09.2018 12:00:00 10,5 9,6 11 6 - - ONO 1017,5 10 1,8
22.09.2018 11:00:00 10,4 9,2 5 3 - - NO 1018,4 6 2,8
22.09.2018 10:00:00 10,7 8,2 8 4 - - WZW 1018,9 7 1,0
22.09.2018 09:00:00 11,6 8,7 24 13 - - WZW 1018,7 15 0,6
22.09.2018 08:00:00 10,1 9,0 2 1 - - ONO 1018,3 17 0,0
22.09.2018 07:00:00 9,7 8,0 4 2 - - N 1018,2 25 0,0
22.09.2018 06:00:00 10,9 8,3 4 2 - - N 1018,5 29 0,0
22.09.2018 05:00:00 12,6 9,1 13 7 - - WNW 1018,4 11 0,0
22.09.2018 04:00:00 12,5 9,2 15 8 - - W 1018,6 12 0,0
22.09.2018 03:00:00 12,5 9,1 16 9 - - W 1018,8 21 0,0
22.09.2018 02:00:00 11,8 9,0 13 7 - - WNW 1018,8 30 0,0
22.09.2018 01:00:00 11,6 8,6 13 7 - - WNW 1018,7 29 0,0
22.09.2018 00:00:00 11,8 9,0 15 8 - - WNW 1018,6 30 0,0
21.09.2018 23:00:00 12,4 9,3 22 12 - - W 1018,0 28 0,0
21.09.2018 22:00:00 13,5 8,9 31 17 50 27 W 1017,6 35 0,0
21.09.2018 21:00:00 13,9 9,6 37 20 46 25 W 1017,2 20 0,0
21.09.2018 20:00:00 14,1 9,8 39 21 54 29 W 1016,8 12 0,0
21.09.2018 19:00:00 14,3 9,8 41 22 54 29 W 1016,2 12 0,0
21.09.2018 18:00:00 14,7 8,0 41 22 54 29 W 1015,7 12 0,0
21.09.2018 17:00:00 14,8 8,8 41 22 55 30 W 1015,1 12 0,0
21.09.2018 16:00:00 15,3 9,6 42 23 63 34 W 1014,2 11 0,0
21.09.2018 15:00:00 15,1 8,8 46 25 72 39 W 1013,5 14 0,0
21.09.2018 14:00:00 14,8 8,1 55 30 74 40 W 1012,6 20 0,0
21.09.2018 13:00:00 13,7 8,9 59 32 85 46 W 1011,1 21 0,0
21.09.2018 12:00:00 14,1 8,0 63 34 81 44 W 1010,0 20 0,0
21.09.2018 11:00:00 12,9 7,8 65 35 89 48 W 1009,2 13 0,0
21.09.2018 10:00:00 13,3 7,0 55 30 68 37 W 1008,6 27 0,0
21.09.2018 09:00:00 12,5 6,9 46 25 63 34 W 1008,1 23 0,0
21.09.2018 08:00:00 11,6 6,7 46 25 61 33 W 1007,5 26 0,0
21.09.2018 07:00:00 11,5 7,5 46 25 63 34 W 1006,5 18 0,0
21.09.2018 06:00:00 11,2 7,0 39 21 54 29 W 1005,8 16 0,0
21.09.2018 05:00:00 10,6 7,4 37 20 52 28 W 1005,0 12 0,0
21.09.2018 04:00:00 9,5 6,7 35 19 59 32 WNW 1004,2 23 0,0
21.09.2018 03:00:00 10,1 8,0 52 28 67 36 W 1003,2 15 0,0
21.09.2018 02:00:00 10,5 8,9 46 25 61 33 W 1001,5 14 0,0
21.09.2018 01:00:00 11,2 9,1 31 17 52 28 WNW 999,5 30 0,0
21.09.2018 00:00:00 11,9 9,9 48 26 85 46 WNW 997,5 30 0,0
20.09.2018 23:00:00 15,6 13,1 72 39 93 50 WZW 995,0 13 0,2
20.09.2018 22:00:00 16,6 15,9 55 30 78 42 ZW 994,8 3,4 1,4
20.09.2018 21:00:00 17,0 16,2 61 33 100 54 ZZW 996,1 1,8 0,6
20.09.2018 20:00:00 17,2 16,5 65 35 83 45 ZZW 996,7 0,6 7,2
20.09.2018 19:00:00 17,3 16,5 65 35 80 43 ZZW 998,6 1,9 1,0
20.09.2018 18:00:00 17,4 16,3 63 34 81 44 ZZW 1000,2 3,2 0,6
20.09.2018 17:00:00 17,3 16,4 67 36 89 48 ZZW 1001,3 2,8 2,6
20.09.2018 16:00:00 17,3 16,6 68 37 93 50 ZZW 1002,2 1,9 6,4
20.09.2018 15:00:00 17,8 16,4 67 36 85 46 ZZW 1003,1 5 0,0
20.09.2018 14:00:00 17,8 16,7 67 36 91 49 ZZW 1003,8 6 0,0
20.09.2018 13:00:00 17,0 16,7 61 33 78 42 ZZW 1004,2 2,2 7,2
20.09.2018 12:00:00 13,8 13,5 18 10 - - OZO 1005,7 1,5 3,2
20.09.2018 11:00:00 13,3 13,0 13 7 - - O 1007,4 16 1,6
20.09.2018 10:00:00 12,6 12,2 11 6 - - O 1008,4 4,0 2,6
20.09.2018 09:00:00 12,0 11,6 9 5 - - ONO 1009,4 5 1,2
20.09.2018 08:00:00 11,6 11,2 8 4 - - ONO 1010,0 23 0,0
20.09.2018 07:00:00 11,5 11,1 8 4 - - NO 1010,4 6 0,2
20.09.2018 06:00:00 11,5 11,0 5 3 - - NO 1010,4 28 0,4
20.09.2018 05:00:00 11,7 11,1 5 3 - - NO 1010,9 2,7 1,6
20.09.2018 04:00:00 11,8 10,9 5 3 - - WNW 1010,9 5 4,6
20.09.2018 03:00:00 12,0 10,9 5 3 - - W 1011,1 4,0 1,6
20.09.2018 02:00:00 12,4 11,0 16 9 - - W 1011,9 5 2,8
20.09.2018 01:00:00 12,9 11,0 31 17 - - ZW 1012,8 6 1,8
20.09.2018 00:00:00 13,8 9,8 31 17 46 25 ZW 1012,6 23 0,0
19.09.2018 23:00:00 13,9 10,4 37 20 50 27 ZW 1013,0 21 0,2
19.09.2018 22:00:00 13,8 9,7 44 24 54 29 ZW 1013,2 23 0,0
19.09.2018 21:00:00 14,1 10,8 41 22 54 29 WZW 1013,0 18 0,4
19.09.2018 20:00:00 14,0 10,6 39 21 55 30 WZW 1012,9 13 0,2
19.09.2018 19:00:00 14,6 10,6 37 20 54 29 WZW 1012,6 13 0,2
19.09.2018 18:00:00 15,3 8,7 48 26 57 31 WZW 1012,3 13 0,0
19.09.2018 17:00:00 15,7 9,4 48 26 59 32 WZW 1012,2 11 0,0
19.09.2018 16:00:00 16,3 9,8 50 27 67 36 WZW 1011,5 10 0,0
19.09.2018 15:00:00 16,1 11,1 48 26 76 41 WZW 1010,5 8 0,0
19.09.2018 14:00:00 16,7 12,9 50 27 68 37 W 1009,8 6 0,0
19.09.2018 13:00:00 15,5 13,7 57 31 96 52 WZW 1008,7 6 0,8
19.09.2018 12:00:00 17,8 14,9 72 39 91 49 ZZW 1007,3 8 0,0
19.09.2018 11:00:00 17,9 14,9 70 38 89 48 ZZW 1007,4 8 0,0
19.09.2018 10:00:00 17,7 14,6 70 38 91 49 ZZW 1006,9 8 0,0

tt = temperatuur
td = dauwpunt
ff = windsnelheid
fx = windstoten
dd = windrichting
ppp = luchtdruk
vv = zicht
rr = neerslag

Weerstations in de omgeving